Flag for Germany Weather past 2 weeks in Emsdetten, North Rhine-Westphalia, Germany

Now
61 °F

Sunny.


Feels Like: 61 °F
Forecast: 46 / 60 °F
Wind: 9 mph from Southwest

Location: Muenster / Osnabrueck

Current Time: May 22, 2015 at 11:09:01 AM

Latest Report: May 22, 2015 at 10:50 AM


Visibility: 10 mi

Pressure: 30.30 "Hg

Humidity: 52%

Dew point: 43 °F

Location of EmsdettenLocation

Historic Weather in Emsdetten — Graph

°F

Emsdetten temperature yesterday

Maximum temperature yesterday: 63 °F (at 3:20 PM)
Minimum temperature yesterday: 39 °F (at 3:50 AM)
Average temperature yesterday: 53 °F

Past Weeks' High & Low Weather Summary

 TemperatureHumidityPressure
High77 °F (May 11, 3:20 PM)100% (May 7, 11:50 PM)30.33 "Hg (May 7, 11:50 PM)
Low37 °F (May 16, 5:20 AM)32% (May 11, 3:50 PM)29.59 "Hg (May 18, 7:20 PM)
Average54 °F70%30.04 "Hg
* Reported May 7 9:20 AM — May 22 9:50 AM, Emsdetten, Weather by CustomWeather, © 2015

Note: Actual official high and low records may vary slightly from our data, if they occured in-between our weather recording intervals... More about our weather records

Advertising

Emsdetten weather history for previous 24 hours

 ConditionsComfort  
Time TempWeatherWind HumidityBarometerVisibility
9:50 AM
Fri, May 22
59 °FPartly sunny.8 mph63%30.30 "HgN/A
9:20 AM55 °FPartly sunny.6 mph72%30.30 "HgN/A
8:50 AM54 °FPartly sunny.5 mph77%30.33 "HgN/A
8:20 AM54 °FPartly sunny.6 mph77%30.33 "HgN/A
7:50 AM52 °FPartly sunny.3 mph82%30.30 "HgN/A
7:20 AM48 °FPartly sunny.3 mph87%30.30 "HgN/A
6:50 AM46 °FPartly sunny.2 mph93%30.30 "HgN/A
6:20 AM46 °FPassing clouds.2 mph100%30.30 "HgN/A
5:50 AM45 °FFog.2 mph100%30.30 "HgN/A
5:20 AM43 °FFog.2 mph100%30.30 "HgN/A
4:50 AM45 °FFog.2 mph100%30.30 "HgN/A
4:20 AM45 °FClear.1 mph100%30.30 "Hg10 mi
3:50 AM45 °FClear.1 mph93%30.30 "Hg10 mi
3:20 AM46 °FClear.1 mph93%30.33 "Hg10 mi
2:50 AM46 °FClear.1 mph93%30.33 "Hg10 mi
2:20 AM46 °FClear.No wind93%30.33 "Hg10 mi
1:50 AM48 °FClear.1 mph87%30.33 "Hg10 mi
1:20 AM48 °FClear.1 mph87%30.33 "Hg10 mi
12:50 AM50 °FClear.2 mph82%30.33 "Hg10 mi
12:20 AM52 °FPartly cloudy.3 mph77%30.33 "HgN/A
11:50 PM
Thu, May 21
54 °FPassing clouds.3 mph72%30.30 "HgN/A
11:20 PM54 °FPartly cloudy.3 mph72%30.30 "HgN/A
10:50 PM55 °FPartly cloudy.5 mph67%30.30 "HgN/A
10:20 PM55 °FBroken clouds.1 mph72%30.30 "HgN/A
9:50 PM55 °FBroken clouds.2 mph72%30.30 "HgN/A
9:20 PM55 °FSunny.2 mph72%30.27 "Hg10 mi
8:50 PM57 °FSunny.3 mph59%30.27 "Hg10 mi
8:20 PM59 °FSunny.2 mph55%30.27 "Hg10 mi
7:50 PM59 °FSunny.5 mph55%30.27 "Hg10 mi
7:20 PM59 °FSunny.6 mph55%30.27 "Hg10 mi
6:50 PM59 °FBroken clouds.6 mph51%30.27 "HgN/A
6:20 PM61 °FBroken clouds.8 mph45%30.24 "HgN/A
5:50 PM63 °FSunny.8 mph42%30.24 "Hg10 mi
5:20 PM63 °FPassing clouds.6 mph39%30.24 "HgN/A
4:50 PM63 °FScattered clouds.6 mph42%30.24 "HgN/A
4:20 PM63 °FScattered clouds.12 mph42%30.24 "HgN/A
3:50 PM63 °FScattered clouds.8 mph45%30.24 "HgN/A
3:20 PM63 °FScattered clouds.12 mph45%30.24 "HgN/A
2:50 PM59 °FScattered clouds.13 mph48%30.24 "HgN/A
2:20 PM61 °FPartly sunny.12 mph48%30.24 "HgN/A
1:50 PM61 °FPartly sunny.10 mph45%30.24 "HgN/A
1:20 PM59 °FPartly sunny.9 mph45%30.24 "HgN/A
12:50 PM57 °FPartly sunny.8 mph48%30.24 "HgN/A
12:20 PM57 °FPartly sunny.8 mph59%30.24 "HgN/A
11:50 AM55 °FPartly sunny.9 mph55%30.24 "HgN/A
11:20 AM55 °FPartly sunny.8 mph63%30.24 "HgN/A
Weather by CustomWeather, © 2015

See weather overviewHow to use our weather pages